Theta_e
300 300 300 300 300 299 298 297 296 293 292 291 294 293 293 294 295 295 295 294 293 293 293 290 289 286 285 284 284 283 281 281 278 275 277 278 277 278 279 279 280 279 278
299 299 299 299 298 297 295 294 291 291 288 289 289 291 291 291 291 292 292 292 292 291 290 288 286 284 282 281 283 281 281 280 279 275 276 276 277 278 278 279 279 279 279
298 298 297 297 296 294 293 291 288 286 285 284 286 287 288 289 290 291 291 290 291 291 289 285 283 282 280 279 279 279 280 279 278 277 275 277 277 278 278 278 278 278 279
297 297 296 295 295 294 291 288 286 285 284 283 284 285 286 286 287 288 288 287 287 285 284 283 282 281 280 279 279 279 279 278 277 276 276 276 277 278 278 277 276 277 277
296 296 296 294 293 291 288 286 285 284 284 284 284 284 284 284 284 285 285 285 284 282 282 282 281 281 283 282 280 278 279 278 277 277 276 277 276 276 276 277 276 276 276
296 296 295 291 289 288 286 285 284 284 283 283 283 283 282 283 286 288 285 284 283 282 281 281 281 281 283 284 284 283 281 279 278 277 277 277 277 277 277 276 275 274 273
291 292 290 289 288 287 286 284 283 282 282 282 282 282 282 282 286 288 287 283 282 282 281 280 280 281 281 282 284 284 283 284 283 280 278 278 277 278 277 276 275 274 274
289 289 288 287 287 286 284 283 282 282 281 281 281 282 282 282 286 288 287 283 282 282 281 280 280 280 281 281 281 280 281 282 282 282 280 280 280 279 279 277 276 275 274
288 287 286 286 286 284 283 282 281 280 279 279 280 282 281 281 286 288 286 281 281 280 280 280 280 280 282 284 280 279 279 280 283 284 283 284 283 283 280 276 272 270 267
286 287 286 285 286 284 284 282 278 279 280 279 280 282 281 281 285 288 286 281 279 279 279 279 281 280 284 284 281 280 278 279 278 279 280 282 283 282 282 277 274 268 267
285 285 283 284 285 284 281 278 278 278 278 279 279 280 281 281 282 287 287 280 279 278 277 278 279 282 284 285 284 281 281 280 279 278 278 278 277 278 277 278 277 274 269
282 282 283 283 283 281 279 274 275 277 277 278 279 278 279 280 282 287 287 283 282 278 277 278 279 283 285 286 284 284 284 282 278 275 275 275 275 275 276 276 276 275 275
280 280 279 277 279 279 279 278 277 279 279 279 278 277 277 278 280 285 287 286 283 279 279 280 281 284 286 287 287 284 282 278 276 274 273 274 274 275 275 274 274 274 273
279 278 277 279 278 276 279 279 279 279 279 278 278 277 277 277 278 282 284 285 283 281 281 281 282 283 284 285 284 285 280 278 275 274 274 275 275 274 273 273 271 269 267
279 278 277 276 276 277 279 279 279 279 281 279 279 279 277 276 278 282 284 282 282 282 281 281 280 279 279 281 281 282 281 279 276 276 275 274 274 273 273 272 271 270 266
280 280 280 279 277 277 278 277 283 282 283 283 283 281 280 281 282 283 285 287 285 284 280 279 278 278 278 279 280 279 279 279 277 277 276 275 274 274 273 271 271 268 267
281 280 280 279 279 279 278 279 278 281 284 284 284 284 283 282 284 284 284 286 286 285 279 279 279 279 279 279 279 279 278 279 279 278 276 276 276 274 272 270 269 267 266
282 282 281 281 280 279 278 276 276 277 278 279 284 284 285 285 285 284 284 285 283 284 280 279 279 280 280 279 279 278 278 276 277 277 277 276 275 274 271 270 268 265 263
281 282 281 281 280 280 279 278 278 278 277 273 275 282 284 286 285 286 285 281 281 282 281 280 280 280 280 279 278 278 277 276 276 276 276 275 274 273 270 268 267 265 261
279 279 282 281 280 279 279 279 278 278 277 277 277 277 277 280 280 281 282 282 277 271 273 281 281 281 281 281 280 279 278 277 275 275 273 272 270 270 267 266 265 262 260
275 272 278 277 280 280 279 279 279 279 279 279 278 279 281 277 276 276 277 280 278 272 271 273 276 279 280 280 278 277 277 274 274 273 270 268 267 266 265 265 262 260 259
274 276 275 273 274 277 278 277 277 277 277 277 275 276 281 278 278 279 279 280 280 280 279 278 276 277 277 276 275 274 273 270 268 266 266 265 264 262 262 260 259 257 254
273 274 271 270 270 274 274 274 274 274 274 274 273 272 272 274 275 274 273 273 273 272 272 273 272 268 267 269 270 272 269 267 267 266 264 263 262 261 260 257 256 255 255
269 270 269 269 269 270 269 268 268 268 267 266 264 262 261 265 268 267 266 266 265 264 265 265 264 264 264 263 263 263 264 263 264 264 263 262 260 259 258 256 257 256 255
267 267 267 266 266 266 265 264 264 264 263 264 262 260 259 262 262 261 261 260 260 260 260 261 261 261 261 262 262 261 264 264 261 261 260 260 259 258 257 256 253 251 249
263 263 263 264 264 264 263 263 262 262 261 261 261 259 259 259 258 258 257 258 258 257 257 256 257 258 259 259 260 262 264 263 259 259 257 256 256 255 254 253 252 251 250
Wind_Speed
5 5 7 7 7 7 8 9 10 8 9 10 11 11 10 10 9 10 9 9 13 12 12 13 14 9 7 6 6 6 4 4 5 2 3 5 5 7 5 4 4 4 3
6 6 7 6 6 7 7 7 8 8 7 9 8 10 10 9 9 11 11 11 14 14 13 12 11 8 7 6 7 6 4 3 5 6 3 3 4 5 5 5 4 4 3
6 7 7 8 8 8 7 7 7 7 7 7 8 10 11 12 12 12 12 11 13 12 12 11 10 10 8 5 5 6 5 3 4 5 5 3 3 4 4 3 5 3 3
7 7 8 8 9 7 7 7 7 7 8 8 8 8 9 9 10 10 9 9 9 8 8 9 9 10 9 9 7 9 7 6 5 8 4 5 3 3 3 4 3 3 3
7 7 10 6 6 6 7 7 7 8 8 9 9 8 9 10 9 11 11 11 10 10 10 10 10 10 14 12 8 7 8 5 6 6 5 4 3 4 7 4 3 2 2
8 11 8 7 7 7 7 8 8 8 7 8 8 10 10 8 16 20 14 12 12 13 12 9 8 12 15 20 18 17 13 12 6 5 3 5 5 4 4 4 4 3 3
8 10 7 7 7 8 8 8 9 9 8 10 10 10 10 10 20 21 20 10 11 11 11 11 9 9 13 12 15 16 13 11 10 7 7 6 7 8 8 6 5 3 3
8 7 6 7 8 7 7 8 6 6 9 8 9 9 9 8 19 21 19 9 10 11 12 14 14 14 14 14 12 10 8 6 6 5 6 5 4 9 7 5 6 3 1
8 7 6 6 7 7 10 10 8 7 6 6 5 9 10 8 20 22 19 10 10 11 11 12 12 14 21 24 14 12 10 7 5 8 8 11 11 14 11 7 4 3 2
7 7 6 6 8 10 11 10 4 6 8 7 7 9 10 9 20 23 21 9 11 9 9 11 18 15 28 26 12 11 9 8 9 7 7 9 11 11 14 6 6 3 3
7 6 5 6 8 8 6 4 6 6 6 8 8 7 9 10 13 25 27 10 10 9 9 9 9 21 26 24 16 11 9 9 13 8 6 4 2 5 4 6 8 6 4
7 7 6 6 5 5 6 3 3 6 7 7 7 5 5 7 13 24 27 20 18 11 11 9 10 24 25 24 17 16 17 12 7 6 5 6 6 6 5 5 6 6 4
5 6 7 4 4 4 7 6 5 6 6 6 6 6 5 6 7 22 26 26 22 10 8 14 20 25 25 19 19 19 17 8 7 7 8 9 8 6 5 4 5 4 3
7 6 4 4 4 4 4 5 6 7 6 6 6 6 6 6 7 8 10 12 18 12 16 14 16 17 17 12 9 13 8 8 9 9 8 6 5 5 6 6 5 4 3
6 5 5 3 4 3 5 7 6 5 8 7 7 7 7 8 10 14 13 11 11 12 12 8 9 10 11 10 9 8 8 9 9 8 7 6 6 6 7 6 4 4 5
6 5 5 4 3 3 4 2 11 10 15 16 13 10 6 10 14 21 22 17 22 22 8 9 8 8 10 10 9 8 7 10 9 8 8 7 7 8 8 5 5 6 7
9 6 5 5 5 5 5 6 6 8 13 15 15 16 16 12 16 20 22 20 22 22 8 8 9 9 9 9 9 9 9 9 9 8 8 8 7 7 9 7 7 6 6
9 9 6 5 5 3 3 3 2 4 6 4 12 11 15 14 15 17 19 18 11 17 9 9 9 9 9 8 8 8 8 6 7 7 7 8 8 8 7 8 8 6 4
8 6 5 5 5 5 3 4 4 4 3 1 1 5 8 13 13 15 17 7 7 9 8 9 8 9 9 9 9 9 9 9 8 8 8 8 8 8 7 7 7 8 6
8 8 6 5 5 6 6 7 6 5 4 4 4 4 2 3 4 5 5 6 4 3 2 6 7 8 9 9 9 8 8 8 8 8 7 7 7 7 7 7 6 6 4
7 4 6 4 5 5 4 5 4 5 5 4 3 3 9 4 3 3 3 4 4 3 3 4 2 3 4 6 7 7 7 6 7 7 6 6 6 6 5 5 5 4 4
7 5 3 3 3 4 3 2 2 3 3 4 2 1 1 2 3 5 6 5 4 5 5 5 3 4 6 6 6 6 7 7 6 5 6 6 6 5 5 5 4 3 4
6 3 2 1 1 5 3 3 2 2 3 3 3 2 2 2 3 3 3 3 3 3 3 2 3 3 3 2 2 4 6 7 7 7 7 6 6 6 6 4 4 3 5
3 1 1 1 2 3 3 4 3 3 4 4 3 3 2 2 3 4 4 3 4 4 4 3 4 4 3 3 3 3 3 4 4 6 8 7 6 7 6 4 6 5 5
5 5 4 3 4 4 4 5 5 4 4 4 4 3 3 3 4 3 4 3 3 4 4 4 3 4 4 5 5 4 5 7 5 6 5 6 8 9 7 5 4 3 3
7 6 5 6 5 5 5 5 5 4 4 3 4 4 3 3 3 3 3 4 3 3 4 2 3 4 5 4 5 5 6 7 6 6 5 5 6 5 5 5 7 4 4
Wind_Direction
209 200 192 196 199 191 186 185 186 173 173 181 189 188 191 193 194 194 195 195 199 204 204 204 204 182 184 179 172 176 152 124 118 149 117 141 143 157 173 178 205 209 203
220 202 210 203 202 201 198 187 169 180 176 177 176 185 187 189 187 193 193 193 198 198 198 199 189 164 160 168 172 156 145 121 134 141 128 138 145 159 162 181 211 200 196
241 218 210 203 202 206 195 181 172 161 172 171 174 185 188 192 192 199 198 196 201 204 197 192 173 164 160 135 140 137 132 130 116 134 129 130 116 154 141 198 223 204 217
225 235 229 214 208 198 189 182 179 176 174 182 192 193 193 188 194 198 195 193 192 184 171 172 163 172 157 156 158 159 150 137 125 125 96 135 125 130 145 193 207 199 231
229 229 239 223 202 191 190 186 183 187 194 191 186 191 189 191 193 186 185 184 174 170 167 164 161 155 156 162 169 170 148 134 135 127 121 127 151 148 192 183 168 184 258
228 235 229 209 197 199 192 190 191 193 187 184 197 196 194 199 203 196 184 184 180 179 171 161 148 148 162 175 182 175 167 148 149 129 129 171 189 171 150 161 157 165 231
230 239 226 201 205 205 192 194 201 193 179 195 198 195 201 200 201 197 190 186 180 178 171 158 154 160 168 169 174 174 169 162 154 144 156 181 176 178 152 161 171 173 197
253 250 230 204 208 193 184 202 203 189 197 198 202 202 196 199 200 199 191 183 181 176 171 169 172 169 167 155 155 150 148 148 179 164 190 176 159 162 169 156 160 149 347
269 253 239 212 208 189 200 199 189 177 190 196 182 195 199 196 200 199 187 181 179 179 174 171 171 168 168 158 154 153 167 178 164 204 189 166 164 171 159 123 151 122 239
291 276 241 216 217 210 211 202 181 187 200 185 188 198 198 195 198 196 188 183 179 173 166 166 175 174 171 167 163 163 160 182 173 189 195 184 182 183 180 176 154 155 153
286 271 248 220 223 222 206 173 178 183 174 193 197 197 194 194 197 198 195 191 183 169 170 171 177 184 173 176 173 169 179 152 189 195 184 166 151 181 191 181 186 179 166
292 283 261 241 206 177 184 178 172 174 184 190 194 191 199 199 201 205 202 194 186 177 175 170 165 181 182 184 186 178 167 159 173 170 182 196 198 205 201 186 183 192 199
290 284 282 252 202 181 169 172 165 179 191 193 196 199 199 198 206 209 208 199 194 183 171 172 174 183 192 196 190 187 183 143 174 179 196 208 201 194 181 178 187 188 158
275 272 260 250 236 176 161 178 181 184 187 188 195 201 198 195 199 201 211 191 190 182 175 174 181 185 190 189 195 198 163 172 187 198 204 194 164 175 193 182 183 169 134
269 268 254 241 237 219 204 183 188 202 193 187 200 198 190 201 208 198 197 182 181 180 169 171 183 186 189 195 194 199 180 181 191 194 197 190 189 183 196 185 174 176 183
254 255 245 228 217 221 224 220 203 209 208 209 203 196 207 212 204 208 210 197 184 173 171 180 188 187 192 197 202 199 195 187 200 193 203 200 198 197 193 181 177 189 199
243 234 235 232 218 220 214 230 199 202 213 217 209 207 209 210 208 210 210 207 184 177 186 181 186 186 192 195 200 197 202 203 195 195 199 207 202 196 186 188 190 189 200
249 232 214 221 223 205 213 236 247 207 179 196 222 204 209 211 215 206 207 200 185 192 192 186 187 188 194 193 195 198 199 189 194 203 196 199 196 191 192 194 189 182 166
248 236 211 205 209 201 189 192 224 208 184 156 265 231 198 205 209 203 200 206 204 197 188 197 196 186 190 190 192 193 193 191 193 196 200 197 191 187 195 188 180 173 142
276 236 217 202 212 207 186 193 201 202 180 185 209 213 163 129 178 192 197 197 188 157 169 186 185 195 190 195 192 194 194 188 192 197 192 187 180 188 183 177 173 161 174
278 270 223 192 194 205 207 220 204 185 169 172 185 202 186 160 152 165 165 198 188 151 168 167 183 177 173 177 173 178 195 184 192 188 176 172 168 171 161 159 156 150 141
274 233 213 204 158 158 148 133 171 141 130 146 137 85 263 128 146 188 188 190 182 192 195 193 191 193 186 180 177 180 181 179 166 158 162 162 160 147 150 148 149 137 140
281 280 276 139 123 117 109 101 118 133 125 112 118 108 76 75 111 90 80 79 77 69 39 77 127 103 47 70 107 159 169 179 176 161 160 158 157 159 159 148 149 145 169
307 329 177 24 74 93 106 109 71 74 99 96 80 61 48 59 72 71 67 65 75 66 49 52 58 90 87 73 75 79 98 110 125 155 149 158 161 153 146 136 172 175 170
10 7 34 45 55 69 76 68 70 60 59 70 75 73 26 49 71 81 82 76 72 72 63 60 63 101 117 123 114 115 132 132 130 138 132 144 155 159 162 167 148 137 134
25 29 32 39 39 55 71 72 65 65 72 78 80 74 72 77 75 72 66 84 88 78 84 69 94 115 125 124 129 128 124 131 139 144 131 131 143 151 158 162 160 146 132